Free Severe Weather Alerts by Email and Text Message   

 
Follow iAlert.com on twitter @ialertcom
Search For Active Alerts in Your Area  
  Hi Guest:  [ Sign-up / Services ] [ Login ]

Current weather by "City, St" or "zip code"  

 

Advertise Here

Hazardous Weather Conditions

No active alerts for SAN ANTONIO, TEXAS

Current Conditions: SAN ANTONIO, TEXAS

Overcast


70.0 F

Last Updated on Apr 21 2018, 12:55 pm CDT
Humidity: 87%
Wind Speed: N 3.5 mph
Barometer 29.98 in
Dewpoint: 65.7 F
Visibility: 10.00 mi
Precip: --
Heat Index: NA
Wind Chill: NA
Current conditions at:

Castroville Municipal Airport, TX (KCVB)

Lat: 29.34 Lon: -98.850

Local Radar Image active severe weather and emergency alerts image image weather storm and storm spotter reports image weather observation monitoring service image
Local
Radar
Active
Alerts
Storm Reports Weather
Monitoring

Weather Alert Notification Services


ialert severe weather and emergency alerts by text message and email ialert daily weather forecast by email and text message service ialert real-time weather-observation monitoring and alert notification service ialert storm report monitoring alert notification

Observation History for SAN ANTONIO, TEXAS


Time Wind
(mph)
Vis
(mi)
Weather Precip (in) Temperature (F) Relative
Humidity
Wind
Chill
(°F)
Heat
Index
(°F)
Pressure
Air Dwpt altimeter
(in)
sea level
(mb)
12:55 pm CDT N 3.5 10.00 Overcast -- 70.0 65.7 87% NA NA 29.98 M
11:55 am CDT SE 3.5 10.00 Overcast -- 67.0 64.8 91% NA NA 30.00 M
11:35 am CDT N 0.0 10.00 Overcast -- 68.0 64.6 90% NA NA 30.00 M
10:55 am CDT SE 11.5 10.00 Overcast -- 67.0 64.8 92% NA NA 29.98 M
10:35 am CDT SE 13.8 7.00 Overcast -- 66.0 64.8 96% NA NA 29.99 M
9:55 am CDT SE 10.4 5.00 Fog/Mist -- 64.0 64.0 99% NA NA 29.99 M
8:55 am CDT E 5.8 3.00 Fog/Mist -- 64.0 63.1 99% NA NA 29.99 M
7:55 am CDT E 6.9 4.00 Fog/Mist -- 64.0 62.8 98% NA NA 29.98 M
6:55 am CDT E 4.6 10.00 Overcast -- 64.0 61.7 92% NA NA 29.98 M
6:35 am CDT NE 4.6 10.00 Overcast -- 64.0 61.2 91% NA NA 29.98 M
5:55 am CDT NE 4.6 10.00 Overcast -- 64.0 60.8 91% NA NA 29.97 M
4:55 am CDT E 4.6 10.00 Overcast -- 64.0 60.8 91% NA NA 29.96 M
3:55 am CDT SE 5.8 10.00 Overcast -- 64.0 60.8 91% NA NA 29.96 M
3:35 am CDT SE 8.1 10.00 Overcast -- 64.0 60.6 90% NA NA 29.96 M
2:55 am CDT SE 5.8 10.00 Overcast -- 63.0 57.4 82% 63 NA 29.97 M
1:55 am CDT E 10.4 10.00 Overcast -- 63.0 56.3 79% 62 NA 29.99 M
1:35 am CDT SE 9.2 10.00 Overcast -- 63.0 55.8 77% 62 NA 30.01 M
12:55 am CDT E 9.2 G 17.3 10.00 Overcast -- 63.0 55.4 77% 62 NA 30.01 M
11:55 pm CDT E 9.2 10.00 Overcast -- 63.0 55.2 77% 62 NA 30.03 M
10:55 pm CDT SE 11.5 10.00 Overcast -- 64.0 54.7 73% NA NA 30.05 M
9:55 pm CDT E 11.5 G 18.4 10.00 Overcast -- 65.0 54.0 68% NA NA 30.05 M
9:35 pm CDT E 10.4 10.00 Overcast -- 65.0 54.3 69% NA NA 30.05 M
8:55 pm CDT E 8.1 10.00 Overcast -- 65.0 54.0 69% NA NA 30.04 M
8:35 pm CDT E 8.1 10.00 Overcast -- 65.0 54.1 69% NA NA 30.03 M

Regional Weather Observation:


San Antonio, San Antonio International Airport, TX (KSAT)

Overcast
68.0 F

Kelly Air Force Base, TX (KSKF)

Mostly Cloudy
70.0 F

San Antonio, Stinson Municipal Airport, TX (KSSF)

Overcast
70.0 F

Randolph Air Force Base, TX (KRND)

Overcast
67.0 F

New Braunfels Regional Airport, TX (KBAZ)

Light Rain Fog/Mist
66.0 F

Kerrville, Kerrville Municipal Airport/Louis Schreiner Field, TX (KERV)

Overcast
66.0 F

Advertise Here


Advertise Here